K9SCH Weather Reports


Display with metric or nautical units.
time (UTC)temp
F
wind
direction
speed
MPH
gust
MPH
rain 1hr
in
rain 24hr
in
rain mn
in
humidity
%
barometer
mb
20260906101035 77 0.0 2.0 0.00 0.00 0.00 58 1011.7
20260906100015 77 0.0 0.0 0.00 0.00 0.00 58 1011.7
20260906095038 77 0.0 1.0 0.00 0.00 0.00 58 1011.7
20260906094035 77 0.0 0.0 0.00 0.00 0.00 58 1011.6
20260906093035 78 0.0 0.0 0.00 0.00 0.00 57 1011.6
20260906092017 78 0.0 0.0 0.00 0.00 0.00 57 1011.8
20260906091017 78 0.0 1.0 0.00 0.00 0.00 57 1011.8
20260906090017 78 0.0 2.0 0.00 0.00 0.00 57 1011.8
20260906085017 78 113 1.0 2.0 0.00 0.00 0.00 57 1011.9
20260906084017 78 0.0 0.0 0.00 0.00 0.00 56 1011.9
20260906083017 79 0.0 0.0 0.00 0.00 0.00 55 1012.0
20260906082037 79 0.0 0.0 0.00 0.00 0.00 55 1012.0
20260906081019 79 0.0 1.0 0.00 0.00 0.00 55 1012.1
20260906080037 79 0.0 1.0 0.00 0.00 0.00 54 1012.1
20260906075018 79 0.0 1.0 0.00 0.00 0.00 54 1012.2
20260906074020 80 0.0 0.0 0.00 0.00 0.00 53 1012.3
20260906073018 80 0.0 0.0 0.00 0.00 0.00 52 1012.3
20260906072019 80 0.0 1.0 0.00 0.00 0.00 52 1012.3
20260906071017 80 0.0 0.0 0.00 0.00 0.00 52 1012.4
20260906070020 81 0.0 0.0 0.00 0.00 0.00 50 1012.4
20260906065020 81 0.0 1.0 0.00 0.00 0.00 50 1012.5
20260906064017 81 0.0 1.0 0.00 0.00 0.00 50 1012.3
20260906063018 81 0.0 0.0 0.00 0.00 0.00 50 1012.3
20260906062037 82 0.0 0.0 0.00 0.00 0.00 49 1012.5
20260906061018 82 0.0 0.0 0.00 0.00 0.00 47 1012.6
20260906060020 83 0.0 0.0 0.00 0.00 0.00 46 1012.5
20260906055016 83 0.0 0.0 0.00 0.00 0.00 44 1012.4
20260906054018 84 0.0 1.0 0.00 0.00 0.00 43 1012.4
20260906053016 84 0.0 0.0 0.00 0.00 0.00 40 1012.4
20260906052037 85 0.0 0.0 0.00 0.00 0.00 39 1012.5
20260906051018 85 0.0 0.0 0.00 0.00 0.00 40 1012.5
20260906050016 86 0.0 0.0 0.00 0.00 0.00 39 1012.5
20260906045016 86 0.0 0.0 0.00 0.00 0.00 38 1012.6
20260906044021 87 0.0 0.0 0.00 0.00 0.00 36 1012.5
20260906043017 88 0.0 0.0 0.00 0.00 0.00 35 1012.5
20260906042016 89 0.0 1.0 0.00 0.00 0.00 34 1012.5
20260906041036 89 338 1.0 3.0 0.00 0.00 0.00 34 1012.6
20260906040038 89 0.0 2.0 0.00 0.00 0.00 33 1012.4
20260906035019 90 0.0 1.0 0.00 0.00 0.00 33 1012.4
20260906034017 90 315 2.0 5.0 0.00 0.00 0.00 32 1012.2
20260906033017 91 315 2.0 5.0 0.00 0.00 0.00 32 1012.2
20260906032018 91 338 2.0 6.0 0.00 0.00 0.00 31 1012.0
20260906031040 91 338 3.0 8.0 0.00 0.00 0.00 31 1011.8
20260906030036 92 315 3.0 6.0 0.00 0.00 0.00 31 1011.8
20260906025018 92 315 3.0 6.0 0.00 0.00 0.00 31 1011.7
20260906024019 92 338 3.0 6.0 0.00 0.00 0.00 31 1011.5
20260906023016 93 315 3.0 5.0 0.00 0.00 0.00 31 1011.4
20260906022016 93 338 3.0 8.0 0.00 0.00 0.00 31 1011.2
20260906021036 93 315 5.0 11.0 0.00 0.00 0.00 31 1011.2
20260906020018 94 293 3.0 7.0 0.00 0.00 0.00 32 1011.1
20260906015020 94 338 2.0 7.0 0.00 0.00 0.00 32 1011.0
20260906014017 95 315 3.0 9.0 0.00 0.00 0.00 31 1011.1
20260906013018 96 293 2.0 5.0 0.00 0.00 0.00 30 1011.2
20260906012016 96 293 3.0 6.0 0.00 0.00 0.00 30 1011.2
20260906011016 96 293 4.0 8.0 0.00 0.00 0.00 30 1011.1
20260906010018 96 270 4.0 8.0 0.00 0.00 0.00 30 1011.1
20260906005039 96 293 5.0 8.0 0.00 0.00 0.00 30 1011.1
20260906004016 97 293 4.0 9.0 0.00 0.00 0.00 29 1011.3
20260906003016 97 270 6.0 10.0 0.00 0.00 0.00 29 1011.2
20260906002016 98 270 5.0 9.0 0.00 0.00 0.00 29 1011.2
20260906001018 97 293 2.0 6.0 0.00 0.00 0.00 30 1011.1
20260906000016 98 293 3.0 9.0 0.00 0.00 0.00 29 1011.2
20260905235018 98 270 6.0 8.0 0.00 0.00 0.00 29 1011.2
20260905234016 98 270 5.0 9.0 0.00 0.00 0.00 29 1011.3
20260905233037 98 248 2.0 5.0 0.00 0.00 0.00 29 1011.3
20260905232017 98 338 2.0 8.0 0.00 0.00 0.00 30 1011.4
20260905231017 98 338 2.0 8.0 0.00 0.00 0.00 30 1011.4
20260905230016 98 270 5.0 9.0 0.00 0.00 0.00 30 1011.4
20260905225016 97 270 5.0 9.0 0.00 0.00 0.00 30 1011.5
20260905224021 98 270 5.0 14.0 0.00 0.00 0.00 30 1011.7
20260905223016 98 293 4.0 8.0 0.00 0.00 0.00 30 1011.8
20260905222018 98 293 3.0 9.0 0.00 0.00 0.00 30 1011.8
20260905221016 98 293 4.0 11.0 0.00 0.00 0.00 30 1011.8
20260905220016 97 293 5.0 9.0 0.00 0.00 0.00 31 1011.9
20260905215016 97 270 3.0 9.0 0.00 0.00 0.00 31 1012.1
20260905214018 97 270 7.0 14.0 0.00 0.00 0.00 31 1012.1
20260905213016 98 293 2.0 8.0 0.00 0.00 0.00 30 1012.3
20260905212020 99 270 5.0 10.0 0.00 0.00 0.00 30 1012.5
20260905211019 99 180 1.0 4.0 0.00 0.00 0.00 30 1012.7
20260905210037 98 248 2.0 9.0 0.00 0.00 0.00 31 1012.8
20260905205036 98 248 3.0 9.0 0.00 0.00 0.00 30 1012.9
20260905204016 98 293 3.0 6.0 0.00 0.00 0.00 30 1013.1
20260905203016 98 270 1.0 7.0 0.00 0.00 0.00 30 1013.2
20260905202037 97 270 4.0 10.0 0.00 0.00 0.00 31 1013.4
20260905201017 97 338 4.0 12.0 0.00 0.00 0.00 30 1013.5
20260905200016 97 45 1.0 5.0 0.00 0.00 0.00 30 1013.6
20260905195019 97 293 4.0 8.0 0.00 0.00 0.00 30 1013.8
20260905194015 96 293 3.0 6.0 0.00 0.00 0.00 30 1013.9
20260905193017 96 248 5.0 9.0 0.00 0.00 0.00 31 1013.9
20260905192016 96 0 1.0 6.0 0.00 0.00 0.00 32 1014.2
20260905191019 96 248 1.0 6.0 0.00 0.00 0.00 32 1014.5
20260905190017 96 225 4.0 6.0 0.00 0.00 0.00 31 1014.7
20260905185017 96 203 2.0 5.0 0.00 0.00 0.00 31 1014.6
20260905184036 94 270 1.0 5.0 0.00 0.00 0.00 32 1014.8
20260905183016 94 248 2.0 6.0 0.00 0.00 0.00 34 1014.9
20260905182038 95 338 2.0 5.0 0.00 0.00 0.00 34 1015.1
20260905181018 96 0.0 0.0 0.00 0.00 0.00 35 1015.4
20260905180017 94 338 1.0 4.0 0.00 0.00 0.00 36 1015.4
20260905175016 92 293 1.0 4.0 0.00 0.00 0.00 38 1015.4
20260905174017 93 0.0 4.0 0.00 0.00 0.00 37 1015.5
20260905173017 92 0.0 1.0 0.00 0.00 0.00 38 1015.4
20260905172035 91 248 2.0 5.0 0.00 0.00 0.00 38 1015.5
20260905171017 91 0.0 1.0 0.00 0.00 0.00 39 1015.5
20260905170016 90 248 3.0 5.0 0.00 0.00 0.00 40 1015.5
20260905165018 92 203 1.0 4.0 0.00 0.00 0.00 39 1015.6
20260905164016 91 248 1.0 3.0 0.00 0.00 0.00 41 1015.5
20260905163017 91 225 1.0 5.0 0.00 0.00 0.00 40 1015.5
20260905162016 90 225 1.0 5.0 0.00 0.00 0.00 41 1015.4
20260905161017 89 158 3.0 6.0 0.00 0.00 0.00 42 1015.4
20260905160036 89 180 2.0 4.0 0.00 0.00 0.00 44 1015.4
20260905155035 88 135 2.0 5.0 0.00 0.00 0.00 44 1015.4
20260905154015 87 135 2.0 4.0 0.00 0.00 0.00 45 1015.3
20260905153036 87 180 2.0 5.0 0.00 0.00 0.00 47 1015.2
20260905152018 86 135 2.0 5.0 0.00 0.00 0.00 48 1015.2
20260905151017 86 158 3.0 5.0 0.00 0.00 0.00 49 1015.2
20260905150016 85 135 1.0 4.0 0.00 0.00 0.00 49 1015.0
20260905145036 85 158 2.0 5.0 0.00 0.00 0.00 49 1015.0
20260905144021 84 135 2.0 5.0 0.00 0.00 0.00 50 1015.0
20260905143019 83 135 2.0 4.0 0.00 0.00 0.00 51 1014.8
20260905142036 82 135 1.0 3.0 0.00 0.00 0.00 51 1014.6
20260905141018 82 135 1.0 2.0 0.00 0.00 0.00 54 1014.7
20260905140016 80 113 2.0 3.0 0.00 0.00 0.00 56 1014.4
20260905135037 79 113 2.0 3.0 0.00 0.00 0.00 58 1014.3
20260905134015 79 113 2.0 3.0 0.00 0.00 0.00 58 1014.2
20260905133036 78 113 2.0 3.0 0.00 0.00 0.00 58 1014.0
20260905132015 78 113 2.0 4.0 0.00 0.00 0.00 59 1013.8
20260905131015 77 113 3.0 4.0 0.00 0.00 0.00 60 1013.7
20260905130018 77 113 3.0 4.0 0.00 0.00 0.00 60 1013.6
20260905125015 77 90 2.0 3.0 0.00 0.00 0.00 62 1013.6
20260905124035 77 113 2.0 2.0 0.00 0.00 0.00 63 1013.6
20260905123017 77 113 1.0 3.0 0.00 0.00 0.00 62 1013.4
20260905122015 77 113 3.0 4.0 0.00 0.00 0.00 61 1013.3
20260905121018 78 113 2.0 3.0 0.00 0.00 0.00 60 1013.4
20260905120018 78 113 2.0 3.0 0.00 0.00 0.00 60 1013.5
20260905115015 78 0.0 0.0 0.00 0.00 0.00 60 1013.5
20260905114035 78 0.0 0.0 0.00 0.00 0.00 59 1013.3
20260905113020 78 0.0 1.0 0.00 0.00 0.00 59 1013.4
20260905112015 78 66 0.0 0.0 0.00 0.00 0.00 59 1013.4
20260905111017 79 90 1.0 2.0 0.00 0.00 0.00 57 1013.4
20260905110017 79 90 1.0 3.0 0.00 0.00 0.00 56 1013.3
20260905105015 80 113 3.0 4.0 0.00 0.00 0.00 54 1013.4
20260905104019 80 113 3.0 5.0 0.00 0.00 0.00 54 1013.4
20260905103015 80 113 2.0 5.0 0.00 0.00 0.00 55 1013.3
20260905102015 80 113 3.0 5.0 0.00 0.00 0.00 55 1013.4